Regional Weather Roundup
Issued by NWS

Home | Current Version | Previous Version | Text Only | Print | Product List | Glossary Off
Versions: 1 2 3 4 5 6 7 8 9 10 11 12 13 14 15 16 17 18 19 20 21 22 23 24 25 26 27 28 29 30 31 32 33 34 35 36 37 38 39 40 41 42 43 44 45 46 47 48 49 50

907
ASUS45 KSLC 190610
RWRUT

UTAH REGIONAL WEATHER ROUNDUP
NATIONAL WEATHER SERVICE SALT LAKE CITY UT
1200 AM MDT TUE SEP 19 2017

UTZ001>011-023>025-190700-

NORTHERN UTAH

CITY           SKY/WX    TMP DP  RH WIND       PRES   REMARKS
BRIGHAM CITY   CLOUDY    58  47  65 E5        29.76F
HILL AFB       LGT RAIN  59  48  67 E8        29.77S
LOGAN          LGT RAIN  52  51  97 SE7       29.79F
OGDEN          LGT RAIN  60  48  64 NE8       29.76F
SALT LAKE CITY CLOUDY    65  46  50 N15       29.73F
TOOELE VALLEY  CLOUDY    63  43  48 N14       29.73F
WENDOVER       CLOUDY    69  36  29 W24G32    29.74R
HEBER CITY     CLOUDY    68  32  26 SW25G45   29.78R
WEST JORDAN    CLOUDY    61  50  68 NW17      29.77R

$$

UTZ011>015-024>027-190700-

CENTRAL/NORTHEAST UTAH

CITY           SKY/WX    TMP DP  RH WIND       PRES   REMARKS
PROVO AIRPORT  CLOUDY    72  43  35 SW22G38   29.75F
MOAB/CANYONLAN PTCLDY    64  31  28 SW8       29.81F
DELTA          CLOUDY    68  32  26 S18G25    29.81F
PRICE          MOCLDY    62  32  32 SE3       29.88S
ROOSEVELT      CLOUDY    54  43  66 CALM      29.82S
VERNAL         CLOUDY    65  27  23 S12       29.79F

$$

UTZ013>016-019>022-027-190700-

SOUTHERN UTAH

CITY           SKY/WX    TMP DP  RH WIND       PRES   REMARKS
BRYCE CANYON   PTCLDY    55  29  36 S13       30.07F
CEDAR CITY     CLEAR     65  34  31 S21G31    29.92S
MILFORD        PTCLDY    64  37  36 S9        29.88R
ST GEORGE      CLOUDY    73  36  25 SE10      29.83S
HANKSVILLE     MOCLDY    73  27  17 SW13G20   29.84F
BLANDING         N/A     59  20  22 SE5       30.07S

$$

REGIONAL REPORTS     COLORADO/ARIZONA

CITY           SKY/WX    TMP DP  RH WIND       PRES   REMARKS
CRAIG, CO      CLOUDY    52  34  50 E5        29.89F
GRAND JUNCTION CLEAR     62  28  27 SE12      29.85F
RIFLE, CO      CLEAR     65  24  21 SE12      29.89F
MONTROSE, CO   CLOUDY    57  31  37 SE5       29.98F
CORTEZ, CO     CLEAR     46  34  62 VRB6      30.05F
PAGE, AZ       CLEAR     71  23  16 S5        29.90S
GRAND CANYON   CLEAR     55  23  28 SE5       30.11F
KINGMAN, AZ    CLEAR     65  40  39 S7        29.91F
FLAGSTAFF, AZ  CLEAR     53  23  31 W8        30.18S

$$

REGIONAL REPORTS    NEVADA/IDAHO/WYOMING

CITY           SKY/WX    TMP DP  RH WIND       PRES   REMARKS
LAS VEGAS, NV  PTCLDY    83  41  22 S14G21    29.75F
ELY, NY        MOCLDY    64  33  31 SW22G30   29.87R
ELKO, NV       CLOUDY    62  31  31 W14       29.81R
POCATELLO, ID  CLOUDY    59  41  51 SW20      29.73R
BURLEY, ID     CLOUDY    50  44  80 W21G31    29.78R
FORT BRIDGER,    N/A     55  41  59 W18G24    29.88S
EVANSTON, WY   CLOUDY    50  46  86 NW6       29.88R
ROCK SPRINGS,  CLOUDY    60  27  28 SW24G31   29.81F
KEMMERER, WY   LGT RAIN  46  45  93 W18G25    29.87F

$$




USA.gov is the U.S. government's official web portal to all federal, state and local government web resources and services.